Regional Weather Roundup
Issued by NWS

Home | Current Version | Previous Version | Graphics & Text | Print | Product List | Glossary On
Versions: 1 2 3 4 5 6 7 8 9 10 11 12 13 14 15 16 17 18 19 20 21 22 23 24 25 26 27 28 29 30 31 32 33 34 35 36 37 38 39 40 41 42 43 44 45 46 47 48 49 50
000
ASUS43 KFSD 260310
RWRSD

WEATHER ROUNDUP FOR SOUTH DAKOTA
NATIONAL WEATHER SERVICE SIOUX FALLS SD
1000 PM CDT THU MAY 25 2017

NOTE: "FAIR" INDICATES FEW OR NO CLOUDS BELOW 12,000 FEET WITH NO
SIGNIFICANT WEATHER AND/OR OBSTRUCTIONS TO VISIBILITY.


SDZ001>005-009-010-012>017-260400-
NORTHWEST AND NORTH CENTRAL SOUTH DAKOTA

CITY           SKY/WX    TMP DP  RH WIND       PRES   REMARKS
BUFFALO          N/A     52  43  71 W13       29.68R
FAITH            N/A     53  42  66 NW15      29.72R
MOBRIDGE       CLEAR     63  41  44 NW16      29.61R
$$

SDZ012>016-024>037-041>051-057-063-072>074-260400-
SOUTHWEST AND SOUTH CENTRAL SOUTH DAKOTA

CITY           SKY/WX    TMP DP  RH WIND       PRES   REMARKS
RAPID CTY ARPT PTCLDY    53  40  61 N21       29.74R
PIERRE         CLOUDY    66  39  37 NW20G26   29.63R
CUSTER         CLEAR     48  32  53 NW8       29.81R
ELLSWORTH AFB  CLEAR     54  42  63 NW17      29.75R
PHILIP         CLOUDY    61  41  47 NW17G25   29.69R
PINE RIDGE     CLOUDY    59  40  49 N20       29.72R
SPEARFISH      CLOUDY    50  41  71 NW13G18   29.81R
WINNER         FAIR      62  44  51 SW3       29.64R
$$

SDZ004>011-016>023-039-040-260400-
NORTHEAST SOUTH DAKOTA

CITY           SKY/WX    TMP DP  RH WIND       PRES   REMARKS
ABERDEEN       CLOUDY    58  46  64 S5        29.56R
WATERTOWN      CLOUDY    55  53  93 S8        29.60R
BROOKINGS      CLOUDY    59  53  80 CALM      29.62R
SISSETON         N/A     59  55  87 S7        29.57R
$$

SDZ017-020-022-023-036>040-048>070-260400-
SOUTHEAST SOUTH DAKOTA

CITY           SKY/WX    TMP DP  RH WIND       PRES   REMARKS
SIOUX FALLS    PTCLDY    61  53  75 S7        29.62R
HURON          PTCLDY    61  53  75 S6        29.58R
CHAMBERLAIN    PTCLDY    59  49  70 CALM      29.63R
MITCHELL       PTCLDY    64  55  72 S3        29.60R
YANKTON        CLEAR     64  53  67 CALM      29.60R
$$

ABBREVIATIONS USED IN REMARKS
   TC - TEMPERATURE IN CELSIUS
  WCI - WIND CHILL INDEX
   HX - HEAT INDEX
  VSB - VISIBILITY




USA.gov is the U.S. government's official web portal to all federal, state and local government web resources and services.